{"data":{"norad_id":68103,"epoch":"2026-09-20T02:38:45.835008Z","epoch_age_seconds":89370,"freshness":"FRESH","line1":"1 68103U 26044C   26263.11025272  .00016134  00000+0  50080-3 0  9993","line2":"2 68103  97.2853 221.9984 0001620  73.6313 286.5108 15.33457252 31372","mean_motion":15.33457252,"eccentricity":0.000162,"inclination_deg":97.2853,"raan_deg":221.9984,"arg_perigee_deg":73.6313,"mean_anomaly_deg":286.5108,"bstar":0.0005008,"rev_number":3137,"period_min":93.905454366067,"perigee_km":464.39805110599,"apogee_km":466.61539167172,"semimajor_km":6843.6437213889,"source":"CELESTRAK","updated_at":"2026-09-20T09:00:43.785108Z"}}